Regional Weather Roundup
Issued by NWS Charleston, WV

Home | Current Version | Previous Version | Graphics & Text | Print | Product List | Glossary On
Versions: 1 2 3 4 5 6 7 8 9 10 11 12 13 14 15 16 17 18 19 20 21 22 23 24 25 26 27 28 29 30 31 32 33 34 35 36 37 38 39 40 41 42 43 44 45 46 47 48 49 50
591
ASUS41 KRLX 100010
RWRRLX
West Virginia Regional Weather Roundup
National Weather Service Charleston WV
700 PM EST FRI DEC 09 2016

Note: "fair" indicates few or no clouds below 12,000 feet with no
significant weather and/or obstructions to visibility.

WVZ003-100100-
Northern Panhandle of West Virginia

CITY           SKY/WX    TMP DP  RH WIND       PRES   REMARKS
WHEELING       CLOUDY    24  17  74 W10       30.42S
$$

WVZ009-100100-
Northwest West Virginia

CITY           SKY/WX    TMP DP  RH WIND       PRES   REMARKS
PARKERSBURG    CLOUDY    26  13  57 SW7       30.52S
$$

WVZ006-100100-
Western West Virginia

CITY           SKY/WX    TMP DP  RH WIND       PRES   REMARKS
HUNTINGTON     CLOUDY    25  13  60 W5        30.53S
$$

WVZ015-100100-
West Central West Virginia

CITY           SKY/WX    TMP DP  RH WIND       PRES   REMARKS
CHARLESTON     FLURRIES  25  12  58 VRB5      30.51R
$$

WVZ022-031-100100-
North Central West Virginia

CITY           SKY/WX    TMP DP  RH WIND       PRES   REMARKS
CLARKSBURG     MOCLDY    25  15  66 W8        30.45S
MORGANTOWN     CLOUDY    26  16  65 SW7       30.43S
$$

WVZ025-035-042-045-100100-
Southern West Virginia

CITY           SKY/WX    TMP DP  RH WIND       PRES   REMARKS
BECKLEY        CLOUDY    19  11  70 W8        30.39S WCI   9
LOGAN          CLOUDY    23  14  68 VRB3      30.47R
BLUEFIELD      MOCLDY    16   8  71 W7        30.37S WCI   6
LEWISBURG      CLOUDY    20   9  63 N6        30.38S
$$

WVZ047-100100-
Northern Mountains of West Virginia

CITY           SKY/WX    TMP DP  RH WIND       PRES   REMARKS
ELKINS         CLOUDY    22  12  65 CALM      30.40S
$$

WVZ052-100100-
Eastern Panhandle of West Virginia

CITY           SKY/WX    TMP DP  RH WIND       PRES   REMARKS
MARTINSBURG    CLOUDY    31  17  56 W12       30.41R
PETERSBURG     PTCLDY    29  15  54 W17G28    30.44S
$$




USA.gov is the U.S. government's official web portal to all federal, state and local government web resources and services.